Hourly Weather Chadziajowka

Today, 16 June, Wednesday

Time Temperature Precipitation Wind Pressure Humidity
00:00 +14°C° 0 mm 0 mps 738 mmHg 75%
01:00 +14°C° 0 mm 0 mps 738 mmHg 76%
02:00 +14°C° 0 mm 0 mps 738 mmHg 76%
03:00 +14°C° 0 mm 0 mps 738 mmHg 77%
04:00 +14°C° 0 mm 0 mps 738 mmHg 77%
05:00 +16°C° 0 mm 1 mps 739 mmHg 73%
06:00 +19°C° 0 mm 1 mps 739 mmHg 70%
07:00 +21°C° 0 mm 1 mps 739 mmHg 66%
08:00 +22°C° 0 mm 1 mps 739 mmHg 63%
09:00 +23°C° 0 mm 1 mps 739 mmHg 60%
10:00 +23°C° 0 mm 0 mps 740 mmHg 57%
11:00 +23°C° 0.1 mm 0 mps 739 mmHg 56%
12:00 +26°C° 0.1 mm 1 mps 739 mmHg 55%
13:00 +26°C° 0.1 mm 1 mps 739 mmHg 54%
14:00 +26°C° 0.4 mm 1 mps 739 mmHg 58%
15:00 +25°C° 0.4 mm 1 mps 739 mmHg 62%
16:00 +25°C° 0.4 mm 2 mps 739 mmHg 66%
17:00 +24°C° 0.4 mm 2 mps 739 mmHg 72%
18:00 +21°C° 0.4 mm 2 mps 739 mmHg 78%
19:00 +20°C° 0.4 mm 3 mps 739 mmHg 84%
20:00 +19°C° 0 mm 3 mps 739 mmHg 87%
21:00 +18°C° 0 mm 2 mps 739 mmHg 90%
22:00 +17°C° 0 mm 2 mps 740 mmHg 93%
23:00 +16°C° 0 mm 2 mps 740 mmHg 93%

Tomorrow, 17 June, Thursday

Time Temperature Precipitation Wind Pressure Humidity
00:00 +16°C° 0 mm 2 mps 740 mmHg 94%
01:00 +16°C° 0 mm 2 mps 740 mmHg 94%
02:00 +15°C° 0 mm 2 mps 740 mmHg 95%
03:00 +15°C° 0 mm 2 mps 740 mmHg 95%
04:00 +15°C° 0 mm 2 mps 740 mmHg 95%
05:00 +16°C° 0 mm 3 mps 740 mmHg 92%
06:00 +17°C° 0 mm 3 mps 740 mmHg 88%
07:00 +19°C° 0 mm 4 mps 740 mmHg 84%
08:00 +20°C° 0 mm 4 mps 741 mmHg 79%
09:00 +22°C° 0 mm 4 mps 741 mmHg 73%
10:00 +23°C° 0 mm 4 mps 741 mmHg 67%
11:00 +25°C° 0 mm 4 mps 741 mmHg 62%
12:00 +26°C° 0 mm 4 mps 741 mmHg 58%
13:00 +26°C° 0 mm 4 mps 741 mmHg 53%
14:00 +26°C° 0 mm 4 mps 740 mmHg 54%
15:00 +26°C° 0 mm 4 mps 740 mmHg 55%
16:00 +26°C° 0 mm 4 mps 740 mmHg 56%
17:00 +25°C° 0 mm 4 mps 740 mmHg 63%
18:00 +22°C° 0 mm 3 mps 740 mmHg 70%
19:00 +20°C° 0 mm 3 mps 740 mmHg 76%
20:00 +19°C° 0 mm 3 mps 740 mmHg 80%
21:00 +18°C° 0 mm 3 mps 740 mmHg 84%
22:00 +17°C° 0 mm 3 mps 741 mmHg 88%
23:00 +16°C° 0 mm 3 mps 740 mmHg 90%

Day after tomorrow, 18 June, Friday

Time Temperature Precipitation Wind Pressure Humidity
00:00 +16°C° 0 mm 3 mps 740 mmHg 91%
01:00 +16°C° 0 mm 3 mps 740 mmHg 93%
02:00 +16°C° 0 mm 3 mps 740 mmHg 93%
03:00 +16°C° 0 mm 3 mps 740 mmHg 94%
04:00 +16°C° 0 mm 2 mps 740 mmHg 94%
05:00 +17°C° 0 mm 3 mps 740 mmHg 89%
06:00 +19°C° 0 mm 4 mps 740 mmHg 84%
07:00 +21°C° 0 mm 5 mps 740 mmHg 78%
08:00 +22°C° 0 mm 5 mps 740 mmHg 73%
09:00 +25°C° 0 mm 5 mps 740 mmHg 68%
10:00 +26°C° 0 mm 5 mps 740 mmHg 63%
11:00 +27°C° 0 mm 5 mps 740 mmHg 61%
12:00 +28°C° 0 mm 5 mps 740 mmHg 58%
13:00 +29°C° 0 mm 5 mps 740 mmHg 56%
14:00 +29°C° 0 mm 5 mps 740 mmHg 58%
15:00 +29°C° 0 mm 5 mps 739 mmHg 60%
16:00 +29°C° 0 mm 5 mps 739 mmHg 62%
17:00 +27°C° 0 mm 4 mps 739 mmHg 68%
18:00 +26°C° 0 mm 4 mps 739 mmHg 73%
19:00 +24°C° 0 mm 3 mps 739 mmHg 79%
20:00 +23°C° 0 mm 4 mps 739 mmHg 81%
21:00 +22°C° 0 mm 4 mps 739 mmHg 83%
22:00 +21°C° 0 mm 4 mps 739 mmHg 85%
23:00 +20°C° 0 mm 4 mps 739 mmHg 88%

19 June, Saturday

Time Temperature Precipitation Wind Pressure Humidity
00:00 +19°C° 0 mm 4 mps 739 mmHg 91%
01:00 +18°C° 0 mm 3 mps 739 mmHg 94%
02:00 +18°C° 0 mm 3 mps 739 mmHg 95%
03:00 +17°C° 0 mm 3 mps 739 mmHg 96%
04:00 +17°C° 0 mm 3 mps 739 mmHg 96%
05:00 +19°C° 0 mm 3 mps 739 mmHg 90%
06:00 +20°C° 0 mm 4 mps 739 mmHg 84%
07:00 +22°C° 0 mm 4 mps 739 mmHg 79%
08:00 +23°C° 0 mm 5 mps 739 mmHg 72%
09:00 +26°C° 0 mm 5 mps 739 mmHg 66%
10:00 +27°C° 0 mm 5 mps 739 mmHg 60%
11:00 +28°C° 0 mm 5 mps 739 mmHg 57%
12:00 +29°C° 0 mm 5 mps 739 mmHg 55%
13:00 +29°C° 0 mm 6 mps 739 mmHg 52%
14:00 +29°C° 0 mm 6 mps 739 mmHg 55%
15:00 +29°C° 0 mm 6 mps 739 mmHg 58%
16:00 +29°C° 0 mm 6 mps 739 mmHg 61%
17:00 +27°C° 0 mm 6 mps 739 mmHg 66%
18:00 +26°C° 0 mm 5 mps 739 mmHg 71%
19:00 +23°C° 0 mm 5 mps 739 mmHg 75%
20:00 +22°C° 0 mm 4 mps 739 mmHg 80%
21:00 +21°C° 0 mm 4 mps 739 mmHg 84%
22:00 +19°C° 0 mm 4 mps 739 mmHg 88%
23:00 +18°C° 0 mm 3 mps 739 mmHg 90%

20 June, Sunday

Time Temperature Precipitation Wind Pressure Humidity
00:00 +18°C° 0 mm 3 mps 739 mmHg 92%
01:00 +17°C° 0 mm 3 mps 739 mmHg 95%
02:00 +17°C° 0 mm 3 mps 739 mmHg 95%
03:00 +16°C° 0 mm 3 mps 738 mmHg 96%
04:00 +16°C° 0 mm 3 mps 738 mmHg 96%
05:00 +18°C° 0 mm 4 mps 738 mmHg 90%
06:00 +19°C° 0 mm 4 mps 738 mmHg 84%
07:00 +21°C° 0 mm 5 mps 738 mmHg 78%
08:00 +22°C° 0 mm 5 mps 738 mmHg 72%
09:00 +25°C° 0 mm 5 mps 738 mmHg 67%
10:00 +26°C° 0 mm 5 mps 738 mmHg 62%
11:00 +27°C° 0 mm 5 mps 738 mmHg 59%
12:00 +28°C° 0 mm 4 mps 738 mmHg 57%
13:00 +29°C° 0 mm 4 mps 737 mmHg 54%
14:00 +29°C° 0 mm 4 mps 737 mmHg 55%
15:00 +29°C° 0 mm 4 mps 737 mmHg 56%
16:00 +29°C° 0 mm 4 mps 737 mmHg 57%
17:00 +28°C° 0 mm 4 mps 737 mmHg 63%
18:00 +26°C° 0 mm 5 mps 737 mmHg 69%
19:00 +25°C° 0 mm 5 mps 736 mmHg 75%
20:00 +23°C° 0 mm 5 mps 736 mmHg 79%
21:00 +22°C° 0 mm 4 mps 736 mmHg 83%
22:00 +20°C° 0 mm 4 mps 736 mmHg 87%
23:00 +20°C° 0 mm 4 mps 736 mmHg 89%

21 June, Monday

Time Temperature Precipitation Wind Pressure Humidity
00:00 +19°C° 0 mm 3 mps 736 mmHg 91%
01:00 +18°C° 0 mm 3 mps 736 mmHg 92%
02:00 +18°C° 0 mm 3 mps 736 mmHg 93%
03:00 +17°C° 0 mm 2 mps 736 mmHg 94%
04:00 +17°C° 0 mm 2 mps 736 mmHg 95%
05:00 +19°C° 0 mm 2 mps 736 mmHg 90%
06:00 +20°C° 0 mm 3 mps 736 mmHg 84%
07:00 +22°C° 0 mm 3 mps 736 mmHg 79%
08:00 +23°C° 0 mm 4 mps 736 mmHg 72%
09:00 +26°C° 0 mm 4 mps 735 mmHg 66%
10:00 +28°C° 0 mm 5 mps 735 mmHg 60%
11:00 +29°C° 0 mm 5 mps 735 mmHg 57%
12:00 +30°C° 0 mm 5 mps 735 mmHg 54%
13:00 +30°C° 0 mm 5 mps 735 mmHg 51%
14:00 +30°C° 0 mm 5 mps 735 mmHg 53%
15:00 +30°C° 0 mm 5 mps 734 mmHg 55%
16:00 +30°C° 0 mm 5 mps 734 mmHg 58%
17:00 +28°C° 0 mm 5 mps 734 mmHg 62%
18:00 +26°C° 0 mm 6 mps 734 mmHg 67%
19:00 +24°C° 0 mm 6 mps 733 mmHg 71%
20:00 +23°C° 0 mm 6 mps 733 mmHg 73%
21:00 +23°C° 0 mm 6 mps 733 mmHg 74%
22:00 +22°C° 0 mm 6 mps 732 mmHg 76%
23:00 +21°C° 0 mm 5 mps 732 mmHg 79%
Show more

We Need Your Consent

Meteoprog and our Service Providers may store and access personal data such as cookies, device identifiers or other similar technologies on your device and process such data to personalise content and ads, as well as provide social media features and to analyse the traffic.

  • Store and/or access information on your device

    Cookies, device identifiers or other information can be stored or accessed on your device for the purposes indicated above.

  • Personalised ads and content, ad and content measurement, audience insights, and products development

    Ads and content can be personalised based on a profile. More data can be added to better personalise ads and content. Ad and content performance can be measured. Insights about the audience who saw the ads and content can be derived. Such data can be used to develop or improve user’s experience, systems and software.

By clicking ‘I Agree’ you will allow the use of indicated cookies, device identifiers, web beacons or other similar technologies. Your settings can be changed in the browser on your device.

For certain purposes, legitimate interests may be relied on, rather than consent. You can read more about this in our Privacy and Cookie Policy.